GW6961 Weather Reports


time (UTC)temp
F
wind
direction
speed
knots
gust
knots
rain 1hr
in
rain 24hr
in
rain mn
in
humidity
%
barometer
mb
20260507200911 74 44 0.0 0.9 0.00 0.00 0.03 84
20260507200609 74 81 0.0 0.0 0.00 0.00 0.03 85
20260507200308 73 21 0.9 0.9 0.00 0.00 0.03 86
20260507200018 74 345 0.9 1.7 0.00 0.00 0.03 86
20260507195716 74 35 0.0 0.9 0.00 0.00 0.03 85
20260507195112 74 65 0.9 3.5 0.00 0.00 0.03 86
20260507194515 73 208 0.0 1.7 0.00 0.00 0.03 86
20260507194213 74 177 1.7 2.6 0.00 0.00 0.03 85
20260507193911 74 228 0.0 0.9 0.00 0.00 0.03 86
20260507193608 74 264 0.9 1.7 0.00 0.00 0.03 87
20260507193317 73 156 0.9 1.7 0.00 0.00 0.03 87
20260507193017 74 203 0.0 1.7 0.00 0.00 0.03 86
20260507192713 74 292 0.9 3.5 0.00 0.00 0.03 86
20260507192417 74 238 0.9 2.6 0.00 0.00 0.03 87
20260507192116 74 148 0.9 2.6 0.00 0.00 0.03 87
20260507191808 74 213 1.7 3.5 0.00 0.00 0.03 88
20260507191745 74 128 1.7 3.5 0.00 0.00 0.03 89
20260507191627 74 169 0.0 0.0 0.00 0.00 0.03 89
20260507191514 74 106 0.0 0.0 0.00 0.00 0.03 90
20260507191502 74 106 0.0 0.0 0.00 0.00 0.03 90
20260507191217 74 102 0.0 0.9 0.00 0.00 0.03 90
20260507190914 74 309 0.0 0.0 0.00 0.00 0.03 89
20260507190618 74 311 0.0 0.9 0.00 0.00 0.03 88
20260507190321 75 254 0.0 1.7 0.00 0.00 0.03 86
20260507190022 75 174 1.7 1.7 0.00 0.00 0.03 85
20260507185805 75 207 0.0 1.7 0.00 0.00 0.03 85
20260507185721 75 248 0.9 2.6 0.00 0.00 0.03 85
20260507185640 75 217 0.9 2.6 0.00 0.00 0.03 85
20260507185513 74 156 0.9 0.9 0.00 0.00 0.03 86
20260507185416 74 146 0.9 0.9 0.00 0.00 0.03 85
20260507185234 74 9 0.0 0.9 0.00 0.00 0.03 87
20260507185111 75 9 0.0 0.9 0.00 0.00 0.03 87
20260507184816 75 25 0.0 0.9 0.00 0.00 0.02 86
20260507184510 75 305 1.7 1.7 0.00 0.00 0.01 83
20260507184459 75 295 0.9 1.7 0.00 0.00 0.01 83
20260507184212 76 198 1.7 2.6 0.00 0.00 0.01 81
20260507183909 76 278 5.2 7.0 0.00 0.00 0.00 79
20260507183615 77 297 1.7 6.1 0.00 0.00 0.00 78
20260507183444 77 256 5.2 7.0 0.00 0.00 0.00 78
20260507183420 77 249 1.7 5.2 0.00 0.00 0.00 79
20260507183310 77 279 5.2 6.1 0.00 0.00 0.00 78
20260507183008 77 255 1.7 2.6 0.00 0.00 0.00 78
20260507182720 77 125 0.9 2.6 0.00 0.00 0.00 78
20260507182416 78 114 2.6 5.2 0.00 0.00 0.00 77
20260507182133 79 207 0.9 2.6 0.00 0.00 0.00 76
20260507181815 80 255 3.5 7.0 0.00 0.00 0.00 72
20260507181519 80 183 5.2 7.0 0.00 0.00 0.00 73
20260507181216 82 260 3.5 7.0 0.00 0.00 0.00 72
20260507180914 82 277 1.7 3.5 0.00 0.00 0.00 70
20260507180610 82 258 3.5 8.7 0.00 0.00 0.00 70
20260507180315 81 120 1.7 3.5 0.00 0.00 0.00 71
20260507180016 81 182 5.2 6.1 0.00 0.00 0.00 72
20260507175712 82 210 1.7 7.8 0.00 0.00 0.00 72
20260507175415 81 267 4.3 6.1 0.00 0.00 0.00 70
20260507175114 81 160 2.6 5.2 0.00 0.00 0.00 70
20260507174813 82 261 4.3 7.8 0.00 0.00 0.00 69
20260507174516 82 259 5.2 7.0 0.00 0.00 0.00 69
20260507174219 82 281 0.9 7.0 0.00 0.00 0.00 72
20260507173909 82 250 3.5 7.0 0.00 0.00 0.00 70
20260507173612 81 225 6.1 8.7 0.00 0.00 0.00 71
20260507173325 82 174 3.5 7.0 0.00 0.00 0.00 71
20260507173017 83 204 7.0 9.6 0.00 0.00 0.00 71
20260507172715 82 30 1.7 5.2 0.00 0.00 0.00 75
20260507172412 82 135 3.5 7.8 0.00 0.00 0.00 70
20260507172125 81 196 3.5 3.5 0.00 0.00 0.00 70
20260507171818 80 207 1.7 3.5 0.00 0.00 0.00 74
20260507171519 80 200 5.2 7.0 0.00 0.00 0.00 72
20260507171217 80 241 3.5 6.1 0.00 0.00 0.00 71
20260507170917 80 251 1.7 6.1 0.00 0.00 0.00 73
20260507170609 81 238 4.3 8.7 0.00 0.00 0.00 72
20260507170315 81 270 1.7 5.2 0.00 0.00 0.00 72
20260507170018 81 224 3.5 3.5 0.00 0.00 0.00 72
20260507165713 81 266 3.5 5.2 0.00 0.00 0.00 69
20260507165410 81 247 0.9 3.5 0.00 0.00 0.00 71
20260507165121 81 224 0.9 5.2 0.00 0.00 0.00 71
20260507164519 80 269 0.9 6.1 0.00 0.00 0.00 74
20260507164213 80 280 2.6 3.5 0.00 0.00 0.00 70
20260507163914 79 316 1.7 7.0 0.00 0.00 0.00 73
20260507163617 78 239 4.3 5.2 0.00 0.00 0.00 74
20260507163321 78 236 1.7 2.6 0.00 0.00 0.00 75
20260507163009 79 214 1.7 3.5 0.00 0.00 0.00 75
20260507162720 79 175 2.6 6.1 0.00 0.00 0.00 74
20260507162411 81 245 3.5 7.0 0.00 0.00 0.00 71
20260507162125 80 263 3.5 5.2 0.00 0.00 0.00 72
20260507161810 79 163 2.6 6.1 0.00 0.00 0.00 74
20260507161511 79 187 0.0 3.5 0.00 0.00 0.00 75
20260507161212 80 212 2.6 3.5 0.00 0.00 0.00 73
20260507160911 81 151 3.5 5.2 0.00 0.00 0.00 71
20260507160617 81 125 3.5 6.1 0.00 0.00 0.00 68
20260507160313 81 39 1.7 2.6 0.00 0.00 0.00 70
20260507160020 79 215 1.7 1.7 0.00 0.00 0.00 71
20260507160008 81 224 0.9 5.2 0.00 0.00 0.00 71
20260507155417 81 198 3.5 6.1 0.00 0.00 0.00 70
20260507155120 80 55 0.9 2.6 0.00 0.00 0.00 72
20260507154812 80 190 1.7 3.5 0.00 0.00 0.00 72
20260507154517 81 96 0.9 2.6 0.00 0.00 0.00 71
20260507154218 80 252 1.7 1.7 0.00 0.00 0.00 72
20260507153911 80 112 3.5 3.5 0.00 0.00 0.00 70
20260507153615 81 281 0.9 3.5 0.00 0.00 0.00 69
20260507153320 80 178 2.6 3.5 0.00 0.00 0.00 71
20260507153014 81 108 1.7 1.7 0.00 0.00 0.00 71
20260507152720 80 64 1.7 1.7 0.00 0.00 0.00 71
20260507152412 79 32 1.7 2.6 0.00 0.00 0.00 73
20260507152116 81 189 0.9 2.6 0.00 0.00 0.00 71
20260507151813 81 148 1.7 5.2 0.00 0.00 0.00 69
20260507151512 82 105 1.7 2.6 0.00 0.00 0.00 70
20260507151216 81 113 0.9 3.5 0.00 0.00 0.00 68
20260507150920 80 198 0.0 2.6 0.00 0.00 0.00 67
20260507150610 80 319 2.6 3.5 0.00 0.00 0.00 68
20260507150320 80 202 2.6 3.5 0.00 0.00 0.00 69
20260507150014 79 24 0.9 1.7 0.00 0.00 0.00 72
20260507150003 81 155 1.7 3.5 0.00 0.00 0.00 69
20260507145413 80 275 1.7 2.6 0.00 0.00 0.00 70
20260507145118 80 215 0.9 2.6 0.00 0.00 0.00 70
20260507144812 78 191 0.9 1.7 0.00 0.00 0.00 69
20260507144516 80 274 2.6 5.2 0.00 0.00 0.00 69
20260507144218 79 344 1.7 3.5 0.00 0.00 0.00 70
20260507143912 79 320 3.5 7.0 0.00 0.00 0.00 70
20260507143616 80 54 3.5 3.5 0.00 0.00 0.00 67
20260507143320 79 328 2.6 8.7 0.00 0.00 0.00 70
20260507143011 79 42 1.7 2.6 0.00 0.00 0.00 70
20260507142718 79 317 3.5 5.2 0.00 0.00 0.00 69
20260507142411 79 1 4.3 5.2 0.00 0.00 0.00 70
20260507142115 78 107 1.7 3.5 0.00 0.00 0.00 70
20260507141813 79 355 3.5 5.2 0.00 0.00 0.00 69
20260507141518 79 300 1.7 7.8 0.00 0.00 0.00 69
20260507141221 80 72 3.5 5.2 0.00 0.00 0.00 69
20260507140921 79 62 1.7 2.6 0.00 0.00 0.00 69
20260507140618 79 244 1.7 3.5 0.00 0.00 0.00 70
20260507140321 77 41 2.6 3.5 0.00 0.00 0.00 73
20260507140013 78 277 1.7 7.8 0.00 0.00 0.00 72
20260507140002 77 275 2.6 3.5 0.00 0.00 0.00 71
20260507135414 77 21 3.5 5.2 0.00 0.00 0.00 73
20260507135118 78 154 0.0 1.7 0.00 0.00 0.00 74
20260507134812 80 326 1.7 3.5 0.00 0.00 0.00 70
20260507134517 78 311 0.9 2.6 0.00 0.00 0.00 72
20260507134220 80 255 0.9 2.6 0.00 0.00 0.00 69
20260507133918 78 264 1.7 2.6 0.00 0.00 0.00 72
20260507133618 78 30 5.2 7.0 0.00 0.00 0.00 73
20260507133313 79 49 2.6 3.5 0.00 0.00 0.00 72
20260507133018 77 123 0.0 2.6 0.00 0.00 0.00 73
20260507132721 78 265 1.7 2.6 0.00 0.00 0.00 73
20260507132416 76 285 0.9 1.7 0.00 0.00 0.00 74
20260507132120 77 311 1.7 2.6 0.00 0.00 0.00 74
20260507131814 78 298 1.7 3.5 0.00 0.00 0.00 73
20260507131519 78 87 1.7 2.6 0.00 0.00 0.00 72
20260507131213 76 29 0.0 0.9 0.00 0.00 0.00 76
20260507130917 77 130 1.7 2.6 0.00 0.00 0.00 74
20260507130621 77 35 0.0 1.7 0.00 0.00 0.00 75
20260507130315 77 49 1.7 3.5 0.00 0.00 0.00 76
20260507130019 76 9 0.9 5.2 0.00 0.00 0.00 78
20260507130008 77 67 1.7 3.5 0.00 0.00 0.00 76
20260507125409 76 68 1.7 2.6 0.00 0.00 0.00 76
20260507125118 76 271 2.6 2.6 0.00 0.00 0.00 76
20260507124820 76 336 0.9 2.6 0.00 0.00 0.00 81
20260507124514 76 95 2.6 3.5 0.00 0.00 0.00 77
20260507124218 76 44 1.7 1.7 0.00 0.00 0.00 77
20260507123910 75 58 0.9 1.7 0.00 0.00 0.00 77
20260507123614 75 50 0.0 0.9 0.00 0.00 0.00 82
20260507123315 75 34 1.7 2.6 0.00 0.00 0.00 81
20260507123021 74 30 0.0 0.9 0.00 0.00 0.00 81
20260507122714 74 55 0.0 0.9 0.00 0.00 0.00 83
20260507122418 74 0 0.0 0.0 0.00 0.00 0.00 85
20260507122113 75 52 2.6 3.5 0.00 0.00 0.00 82
20260507121818 74 56 1.7 1.7 0.00 0.00 0.00 85
20260507121511 74 40 3.5 3.5 0.00 0.00 0.00 84
20260507121215 74 51 1.7 2.6 0.00 0.00 0.00 84
20260507120917 73 116 0.9 1.7 0.00 0.00 0.00 85
20260507120611 73 340 0.9 1.7 0.00 0.00 0.00 88
20260507120316 73 38 2.6 6.1 0.00 0.00 0.00 87
20260507120016 72 68 0.9 1.7 0.00 0.00 0.00 87
20260507120005 72 73 0.0 0.9 0.00 0.00 0.00 88
20260507115410 72 20 1.7 3.5 0.00 0.00 0.00 88
20260507115114 72 218 0.0 2.6 0.00 0.00 0.00 90
20260507114819 72 58 1.7 1.7 0.00 0.00 0.00 90
20260507114512 71 51 2.6 2.6 0.00 0.00 0.00 89
20260507114217 71 39 0.9 0.9 0.00 0.00 0.00 89
20260507113910 71 106 0.0 0.9 0.00 0.00 0.00 90
20260507113614 71 127 0.0 0.0 0.00 0.00 0.00 90
20260507113319 70 101 0.9 1.7 0.00 0.00 0.00 90
20260507113011 71 116 0.0 0.9 0.00 0.00 0.00 91
20260507112717 70 235 0.9 0.9 0.00 0.00 0.00 91
20260507112411 70 109 0.0 1.7 0.00 0.00 0.00 91
20260507112116 70 153 0.9 1.7 0.00 0.00 0.00 92
20260507111820 70 175 0.9 1.7 0.00 0.00 0.00 92
20260507111514 70 94 0.0 0.0 0.00 0.00 0.00 92
20260507111218 70 94 0.0 0.0 0.00 0.00 0.00 93
20260507110912 70 95 0.0 0.0 0.00 0.00 0.00 93
20260507110617 70 94 0.0 0.0 0.00 0.00 0.00 93
20260507110319 69 94 0.0 0.0 0.00 0.00 0.00 93
20260507110014 69 94 0.0 0.0 0.00 0.00 0.00 93
20260507110002 69 93 0.0 0.0 0.00 0.00 0.00 93
20260507105413 69 93 0.0 0.0 0.00 0.00 0.00 94
20260507105118 68 224 0.0 0.0 0.00 0.00 0.00 94
20260507104811 68 225 0.0 0.0 0.00 0.00 0.00 94
20260507104516 68 224 0.0 0.0 0.00 0.00 0.00 94
20260507104218 68 101 0.0 0.0 0.00 0.00 0.00 94
20260507103920 68 101 0.0 0.0 0.00 0.00 0.00 94
20260507103618 68 100 0.0 0.0 0.00 0.00 0.00 94
20260507103402 68 128 0.0 0.9 0.00 0.00 0.00 94
20260507103012 68 95 0.0 0.9 0.00 0.00 0.00 93
20260507102721 68 193 0.0 0.9 0.00 0.00 0.00 93
20260507102420 68 107 0.0 0.0 0.00 0.00 0.00 92
20260507102113 68 127 0.0 0.0 0.00 0.00 0.00 92
20260507101817 68 247 0.0 0.0 0.00 0.00 0.00 91
20260507101511 68 194 0.0 0.0 0.00 0.00 0.00 91
20260507101216 69 194 0.0 0.0 0.00 0.00 0.00 90
20260507100911 70 31 0.0 0.9 0.00 0.00 0.00 89
20260507100613 71 344 0.0 0.9 0.00 0.00 0.00 88
20260507100318 71 192 0.0 3.5 0.00 0.00 0.00 88
20260507100011 71 61 0.9 1.7 0.00 0.00 0.00 88
20260507095417 70 236 3.5 6.1 0.00 0.00 0.00 90
20260507095110 70 149 0.0 3.5 0.00 0.00 0.00 91
20260507094813 70 179 3.5 12.2 0.00 0.00 0.00 91
20260507094517 70 289 0.0 1.7 0.00 0.00 0.00 92
20260507094211 69 254 0.9 3.5 0.00 0.00 0.00 94
20260507093916 68 168 0.9 2.6 0.00 0.00 0.00 96
20260507093610 68 249 1.7 3.5 0.00 0.00 0.00 96
20260507093314 68 256 1.7 1.7 0.00 0.00 0.00 96
20260507093017 67 213 0.0 0.9 0.00 0.00 0.00 96
20260507092715 68 117 0.0 1.7 0.00 0.00 0.00 96
20260507092417 68 115 0.0 1.7 0.00 0.00 0.00 96
20260507092121 67 186 2.6 3.5 0.00 0.00 0.00 97
20260507091814 67 176 0.0 0.0 0.00 0.00 0.00 96
20260507091517 67 162 0.0 0.0 0.00 0.00 0.00 96
20260507091211 67 163 0.0 0.0 0.00 0.00 0.00 96
20260507090915 67 201 0.0 0.9 0.00 0.00 0.00 96
20260507090618 66 195 0.9 1.7 0.00 0.00 0.00 96
20260507090310 66 197 0.0 0.0 0.00 0.00 0.00 96
20260507090014 66 196 0.0 0.9 0.00 0.00 0.00 96
20260507090004 66 199 0.0 0.9 0.00 0.00 0.00 96
20260507085415 66 241 0.0 0.0 0.00 0.00 0.00 95
20260507085120 66 199 0.0 0.0 0.00 0.00 0.00 96
20260507084809 67 199 0.0 0.0 0.00 0.00 0.00 95
20260507084518 67 199 0.0 0.0 0.00 0.00 0.00 95
20260507084220 67 200 0.0 0.0 0.00 0.00 0.00 95
20260507083914 67 185 0.0 0.0 0.00 0.00 0.00 95
20260507083619 67 165 0.9 0.9 0.00 0.00 0.00 95
20260507083313 67 94 0.0 0.9 0.00 0.00 0.00 95
20260507083015 67 225 0.0 0.0 0.00 0.00 0.00 95
20260507082718 67 224 0.0 0.0 0.00 0.00 0.00 95
20260507082411 67 224 0.0 0.9 0.00 0.00 0.00 94
20260507082121 67 224 0.0 0.0 0.00 0.00 0.00 94
20260507081833 67 225 0.0 0.0 0.00 0.00 0.00 94
20260507081515 67 225 0.0 0.0 0.00 0.00 0.00 93
20260507081214 68 256 0.9 0.9 0.00 0.00 0.00 93
20260507080913 68 220 0.0 0.9 0.00 0.00 0.00 93
20260507080618 68 81 0.0 0.0 0.00 0.00 0.00 93
20260507080313 68 99 0.0 0.9 0.00 0.00 0.00 93
20260507080015 68 308 1.7 2.6 0.00 0.00 0.00 94
20260507080005 68 225 0.0 0.0 0.00 0.00 0.00 93
20260507075411 68 225 0.0 0.0 0.00 0.00 0.00 92
20260507075116 69 212 0.0 0.0 0.00 0.00 0.00 92
20260507074809 69 212 0.0 0.0 0.00 0.00 0.00 92
20260507074514 69 177 0.0 1.7 0.00 0.00 0.00 92
20260507074219 69 201 0.9 0.9 0.00 0.00 0.00 92
20260507073912 69 253 1.7 5.2 0.00 0.00 0.00 93
20260507073615 69 217 0.9 0.9 0.00 0.00 0.00 93
20260507073320 68 255 1.7 5.2 0.00 0.00 0.00 95
20260507073013 68 139 0.9 1.7 0.00 0.00 0.00 96
20260507072718 67 174 0.0 0.0 0.00 0.00 0.00 94
20260507072412 67 245 0.0 0.9 0.00 0.00 0.00 94
20260507072118 67 155 0.0 1.7 0.00 0.00 0.00 94
20260507071813 68 268 0.0 0.9 0.00 0.00 0.00 95
20260507071519 68 72 0.0 0.9 0.00 0.00 0.00 95
20260507071212 68 94 0.9 1.7 0.00 0.00 0.00 96
20260507070911 67 262 1.7 5.2 0.00 0.00 0.00 97
20260507070616 67 82 0.0 2.6 0.00 0.00 0.00 96
20260507070318 67 86 0.0 1.7 0.00 0.00 0.00 96
20260507070013 66 167 0.0 0.0 0.00 0.00 0.00 96
20260507070001 66 125 0.0 0.9 0.00 0.00 0.00 96
20260507065416 66 86 0.0 0.9 0.00 0.00 0.00 96
20260507065116 66 162 0.0 0.9 0.00 0.00 0.00 96
20260507064810 66 209 0.9 0.9 0.00 0.00 0.00 96
20260507064515 66 199 0.0 0.9 0.00 0.00 0.00 96
20260507064211 67 198 0.0 0.0 0.00 0.00 0.00 96
20260507063915 66 198 0.0 0.9 0.00 0.00 0.00 96
20260507063610 66 160 0.0 0.0 0.00 0.00 0.00 96
20260507063316 66 154 0.0 0.9 0.00 0.00 0.00 96
20260507063010 66 238 0.0 0.0 0.00 0.00 0.00 96
20260507062714 66 215 0.0 0.0 0.00 0.00 0.00 96
20260507062417 66 146 0.0 0.0 0.00 0.00 0.00 96
20260507062111 66 144 0.0 0.0 0.00 0.00 0.00 96
20260507061812 66 59 0.0 0.0 0.00 0.00 0.00 96
20260507061514 66 244 0.0 0.9 0.00 0.00 0.00 96
20260507061218 66 147 0.0 0.0 0.00 0.00 0.00 95
20260507060911 66 147 0.0 0.0 0.00 0.00 0.00 95
20260507060616 66 158 0.0 0.0 0.00 0.00 0.00 95
20260507060315 66 238 0.0 0.0 0.00 0.00 0.00 95
20260507060014 66 323 1.7 2.6 0.00 0.00 0.00 96
20260507060003 67 55 0.0 0.0 0.00 0.00 0.00 96
20260507055419 67 37 0.0 1.7 0.00 0.00 0.00 96
20260507055114 67 266 0.0 1.7 0.00 0.00 0.00 97
20260507054817 67 206 0.0 1.7 0.00 0.00 0.00 97
20260507054511 67 252 0.9 2.6 0.00 0.00 0.00 97
20260507054215 66 282 0.9 0.9 0.00 0.00 0.00 96
20260507053919 66 164 0.0 2.6 0.00 0.00 0.00 97
20260507053613 66 262 0.9 1.7 0.00 0.00 0.00 96
20260507053319 66 233 0.0 0.0 0.00 0.00 0.00 96
20260507053012 66 231 0.0 0.0 0.00 0.00 0.00 96
20260507052716 65 224 0.0 0.0 0.00 0.00 0.00 96
20260507052420 65 234 0.0 0.0 0.00 0.00 0.00 96
20260507052110 65 235 0.0 0.0 0.00 0.00 0.00 96
20260507051810 65 230 0.0 0.0 0.00 0.00 0.00 96
20260507051511 65 230 0.0 0.0 0.00 0.00 0.00 96
20260507051217 65 230 0.0 0.0 0.00 0.00 0.00 96
20260507050910 66 230 0.0 0.0 0.00 0.00 0.00 96
20260507050613 66 229 0.0 0.0 0.00 0.00 0.00 96
20260507050319 66 229 0.0 0.0 0.00 0.00 0.00 96
20260507050013 65 230 0.0 0.0 0.00 0.00 0.00 96
20260507050001 65 209 0.0 0.0 0.00 0.00 0.00 96
20260507045413 66 100 0.0 0.0 0.00 0.00 0.00 96
20260507045118 66 100 0.0 0.0 0.00 0.00 0.00 96
20260507044819 66 218 0.0 0.0 0.00 0.00 0.00 96
20260507044513 66 218 0.0 0.0 0.00 0.00 0.00 96
20260507044218 66 193 0.0 0.0 0.00 0.00 0.00 96
20260507043912 66 96 0.0 0.0 0.00 0.00 0.00 96
20260507043615 66 239 0.0 0.0 0.00 0.00 0.00 96
20260507043319 66 205 0.0 0.0 0.00 0.00 0.00 96
20260507043015 66 205 0.0 0.0 0.00 0.00 0.00 96
20260507042713 66 205 0.0 0.0 0.00 0.00 0.00 96
20260507042419 66 205 0.0 0.0 0.00 0.00 0.00 96
20260507042110 66 206 0.0 0.0 0.00 0.00 0.00 96
20260507041809 66 207 0.0 0.0 0.00 0.00 0.00 96
20260507041512 66 93 0.0 0.0 0.00 0.00 0.00 96
20260507041216 66 210 0.0 0.0 0.00 0.00 0.00 96
20260507040920 66 211 0.0 0.0 0.00 0.00 0.00 96
20260507040612 66 209 0.0 0.0 0.00 0.00 0.00 95
20260507040317 66 209 0.0 0.0 0.00 0.00 0.00 95
20260507040009 66 209 0.0 0.0 0.00 0.00 0.00 95
20260507035419 66 210 0.0 0.0 0.00 0.00 0.00 95
20260507035112 66 209 0.0 0.0 0.00 0.00 0.00 95
20260507034818 67 209 0.0 0.0 0.00 0.00 0.00 95
20260507034512 67 210 0.0 0.0 0.00 0.00 0.00 95
20260507034217 67 209 0.0 0.0 0.00 0.00 0.00 95
20260507033920 67 209 0.0 0.0 0.00 0.00 0.00 95
20260507033612 67 210 0.0 0.0 0.00 0.00 0.00 95
20260507033314 67 210 0.0 0.0 0.00 0.00 0.00 95
20260507033018 67 210 0.0 0.0 0.00 0.00 0.00 95
20260507032711 67 211 0.0 0.0 0.00 0.00 0.00 95
20260507032416 67 209 0.0 0.0 0.00 0.00 0.00 95
20260507032120 67 209 0.0 0.0 0.00 0.00 0.00 95
20260507031813 67 210 0.0 0.0 0.00 0.00 0.00 94
20260507031518 67 211 0.0 0.0 0.00 0.00 0.00 94
20260507031213 67 189 0.0 0.0 0.00 0.00 0.00 94
20260507030918 67 189 0.0 0.0 0.00 0.00 0.00 94
20260507030610 67 176 0.0 0.0 0.00 0.00 0.00 94
20260507030314 68 129 0.0 0.0 0.00 0.00 0.00 94
20260507030019 68 113 0.0 0.0 0.00 0.00 0.00 94
20260507030008 67 237 0.0 0.0 0.00 0.00 0.00 95
20260507025419 67 219 0.0 0.0 0.00 0.00 0.00 94
20260507025111 67 81 0.0 0.0 0.00 0.00 0.00 94
20260507024814 68 227 0.0 0.0 0.00 0.00 0.00 94
20260507024519 67 226 0.0 0.0 0.00 0.00 0.00 94
20260507024213 67 217 0.0 0.9 0.00 0.00 0.00 94
20260507023918 67 219 0.9 0.9 0.00 0.00 0.00 94
20260507023613 67 217 0.0 0.0 0.00 0.00 0.00 94
20260507023317 67 209 1.7 1.7 0.00 0.00 0.00 94
20260507023011 67 139 0.0 0.9 0.00 0.00 0.00 94
20260507022716 67 242 0.0 0.9 0.00 0.00 0.00 94
20260507022410 67 238 0.9 1.7 0.00 0.00 0.00 94
20260507022114 67 222 0.0 0.0 0.00 0.00 0.00 94
20260507021819 67 222 0.0 0.0 0.00 0.00 0.00 94
20260507021513 67 222 0.0 0.0 0.00 0.00 0.00 94
20260507021218 67 222 0.0 0.0 0.00 0.00 0.00 94
20260507020913 67 222 0.0 0.0 0.00 0.00 0.00 94
20260507020616 67 222 0.0 0.0 0.00 0.00 0.00 94
20260507020310 67 222 0.0 0.0 0.00 0.00 0.00 94
20260507020014 68 222 0.0 0.0 0.00 0.00 0.00 94
20260507020003 68 222 0.0 0.0 0.00 0.00 0.00 94
20260507015412 68 222 0.0 0.0 0.00 0.00 0.00 94
20260507015115 68 222 0.0 0.0 0.00 0.00 0.00 93
20260507014809 68 222 0.0 0.0 0.00 0.00 0.00 93
20260507014514 68 222 0.0 0.0 0.00 0.00 0.00 93
20260507014220 68 222 0.0 0.0 0.00 0.00 0.00 93
20260507013911 68 221 0.0 0.0 0.00 0.00 0.00 93
20260507013612 68 220 0.0 0.0 0.00 0.00 0.00 93
20260507013318 68 221 0.0 0.0 0.00 0.00 0.00 93
20260507013011 68 220 0.0 0.0 0.00 0.00 0.00 93
20260507012713 68 220 0.0 0.0 0.00 0.00 0.00 93
20260507012417 68 220 0.0 0.0 0.00 0.00 0.00 93
20260507012112 68 220 0.0 0.0 0.00 0.00 0.00 93
20260507011818 68 220 0.0 0.0 0.00 0.00 0.00 93
20260507011510 68 221 0.0 0.0 0.00 0.00 0.00 93
20260507011213 68 220 0.0 0.0 0.00 0.00 0.00 93
20260507010916 68 220 0.0 0.0 0.00 0.00 0.00 92
20260507010610 68 220 0.0 0.0 0.00 0.00 0.00 92
20260507010314 69 219 0.0 0.0 0.00 0.00 0.00 92
20260507010015 69 219 0.0 0.0 0.00 0.00 0.00 92
20260507010004 69 219 0.0 0.0 0.00 0.00 0.00 92
20260507005413 69 220 0.0 0.0 0.00 0.00 0.00 92
20260507005118 69 220 0.0 0.0 0.00 0.00 0.00 92
20260507004810 69 220 0.0 0.0 0.00 0.00 0.00 92
20260507004516 69 220 0.0 0.0 0.00 0.00 0.00 92
20260507004209 69 221 0.0 0.0 0.00 0.00 0.00 92
20260507003913 69 223 0.0 0.0 0.00 0.00 0.00 92
20260507003617 69 215 0.0 0.0 0.00 0.00 0.00 92
20260507003312 69 214 0.0 0.0 0.00 0.00 0.00 91
20260507003015 70 212 0.0 0.0 0.00 0.00 0.00 91
20260507002709 70 212 0.0 0.0 0.00 0.00 0.00 91
20260507002414 70 211 0.0 0.0 0.00 0.00 0.00 91
20260507002118 70 178 0.0 0.0 0.00 0.00 0.00 91
20260507001811 70 179 0.0 0.0 0.00 0.00 0.00 91
20260507001514 70 253 0.0 1.7 0.00 0.00 0.00 91
20260507001217 70 179 0.0 0.0 0.00 0.00 0.00 91
20260507000912 70 205 0.0 0.9 0.00 0.00 0.00 90
20260507000617 70 195 0.0 0.9 0.00 0.00 0.00 90
20260507000317 70 310 0.0 0.0 0.00 0.00 0.00 90
20260507000010 70 315 0.9 0.9 0.00 0.00 0.00 90
20260506235412 70 163 0.0 0.0 0.00 0.00 0.00 89
20260506235117 70 77 0.0 2.6 0.00 0.00 0.00 89
20260506234812 71 109 0.0 0.9 0.00 0.00 0.00 88
20260506234517 71 4 0.0 0.0 0.00 0.00 0.00 88
20260506234211 71 5 0.0 0.0 0.00 0.00 0.00 87
20260506233915 71 4 0.0 0.9 0.00 0.00 0.00 87
20260506233618 71 96 0.0 0.9 0.00 0.00 0.00 86
20260506233313 71 102 0.0 0.9 0.00 0.00 0.00 86
20260506233019 72 161 0.0 0.0 0.00 0.00 0.00 86
20260506232713 72 229 0.0 1.7 0.00 0.00 0.00 86
20260506232417 72 66 0.9 2.6 0.00 0.00 0.00 86
20260506232111 72 23 0.9 0.9 0.00 0.00 0.00 86
20260506231815 72 25 0.0 0.9 0.00 0.00 0.00 85
20260506231520 72 220 1.7 1.7 0.00 0.00 0.00 85
20260506231214 72 260 0.0 1.7 0.00 0.00 0.00 84
20260506230918 73 9 0.9 2.6 0.00 0.00 0.00 83
20260506230611 73 311 0.9 1.7 0.00 0.00 0.00 83
20260506230312 73 247 1.7 2.6 0.00 0.00 0.00 82
20260506230016 73 256 0.9 2.6 0.00 0.00 0.00 82
20260506230004 73 277 0.9 1.7 0.00 0.00 0.00 82
20260506225411 74 328 0.9 1.7 0.00 0.00 0.00 82
20260506225117 74 97 0.9 2.6 0.00 0.00 0.00 81
20260506224810 74 297 2.6 5.2 0.00 0.00 0.00 80
20260506224515 74 229 1.7 5.2 0.00 0.00 0.00 80
20260506224218 74 269 0.9 2.6 0.00 0.00 0.00 79
20260506223913 74 274 1.7 6.1 0.00 0.00 0.00 79
20260506223618 75 285 3.5 3.5 0.00 0.00 0.00 79
20260506223313 75 275 2.6 5.2 0.00 0.00 0.00 79
20260506223018 75 179 3.5 5.2 0.00 0.00 0.00 78
20260506222721 75 161 1.7 3.5 0.00 0.00 0.00 78
20260506222415 75 279 3.5 6.1 0.00 0.00 0.00 78
20260506222121 75 223 3.5 7.0 0.00 0.00 0.00 78
20260506221814 75 251 1.7 3.5 0.00 0.00 0.00 78
20260506221519 76 197 5.2 8.7 0.00 0.00 0.00 78
20260506221212 76 237 1.7 6.1 0.00 0.00 0.00 79
20260506220917 76 279 3.5 7.8 0.00 0.00 0.00 79
20260506220611 76 190 1.7 7.0 0.00 0.00 0.00 78
20260506220316 76 335 5.2 6.1 0.00 0.00 0.00 78
20260506220009 76 179 3.5 6.1 0.00 0.00 0.00 77
20260506215420 76 253 4.3 6.1 0.00 0.00 0.00 77
20260506215113 76 110 5.2 7.8 0.00 0.00 0.00 77
20260506214818 76 245 3.5 6.1 0.00 0.00 0.00 77
20260506214511 76 146 5.2 7.8 0.00 0.00 0.00 77
20260506214215 76 217 3.5 6.1 0.00 0.00 0.00 76
20260506213919 76 260 4.3 7.0 0.00 0.00 0.00 76
20260506213612 77 234 6.1 7.8 0.00 0.00 0.00 76
20260506213316 77 236 2.6 3.5 0.00 0.00 0.00 77
20260506213020 77 236 2.6 5.2 0.00 0.00 0.00 77
20260506212720 77 137 1.7 6.1 0.00 0.00 0.00 78
20260506212414 77 236 4.3 7.0 0.00 0.00 0.00 77
20260506212118 77 147 0.9 5.2 0.00 0.00 0.00 75
20260506211810 77 222 1.7 3.5 0.00 0.00 0.00 77
20260506211513 77 168 3.5 7.0 0.00 0.00 0.00 77
20260506211218 77 162 2.6 7.0 0.00 0.00 0.00 77
20260506210913 77 212 3.5 6.1 0.00 0.00 0.00 75
20260506210617 78 199 3.5 6.1 0.00 0.00 0.00 75
20260506210311 78 251 3.5 3.5 0.00 0.00 0.00 76
20260506210015 78 262 1.7 6.1 0.00 0.00 0.00 75
20260506210004 78 280 1.7 5.2 0.00 0.00 0.00 75
20260506205414 78 149 1.7 3.5 0.00 0.00 0.00 74
20260506205119 78 256 1.7 7.8 0.00 0.00 0.00 74
20260506204813 78 279 3.5 5.2 0.00 0.00 0.00 74
20260506204517 79 265 5.2 6.1 0.00 0.00 0.00 73
20260506204210 78 97 0.9 1.7 0.00 0.00 0.00 74
20260506203914 79 272 2.6 6.1 0.00 0.00 0.00 72
20260506203620 79 119 0.9 6.1 0.00 0.00 0.00 71
20260506203313 79 229 1.7 7.0 0.00 0.00 0.00 72
20260506203018 79 164 2.6 2.6 0.00 0.00 0.00 71
20260506202711 79 58 1.7 3.5 0.00 0.00 0.00 72
20260506202416 79 48 1.7 5.2 0.00 0.00 0.00 71
20260506202110 79 206 0.9 3.5 0.00 0.00 0.00 71
20260506201815 80 264 2.6 5.2 0.00 0.00 0.00 71
20260506201520 80 202 3.5 6.1 0.00 0.00 0.00 70
20260506201214 80 253 0.9 3.5 0.00 0.00 0.00 71